Location: Newark
(34.6283°N, 36.0776°E)
Time: 06:53:03
(UTC+00:00)

A-11 Canister half - Pass Details

Date: 26 September 2019
Orbit: 1527 x 1682 km, 47.3° (Epoch: 17 October)

Event Time Altitude Azimuth Distance (km) Brightness Sun altitude
Rises 00:08:59 0° 242° (WSW) 4,668 - -39.5°
Reaches altitude 10° 00:12:02 10° 245° (WSW) 3,690 - -39.0°
Maximum altitude 00:21:18 71° 329° (NNW) 1,622 - -37.4°
Exits shadow 00:21:40 70° 344° (NNW) 1,628 8.9 -37.3°
Drops below altitude 10° 00:30:50 10° 53° (NE) 3,777 11.8 -35.7°
Sets 00:34:00 0° 56° (NE) 4,784 12.6 -35.1°
